Precipitable_Water
0.54 0.52 0.52 0.50 0.48 0.48 0.46 0.46 0.46 0.44 0.44 0.44 0.42 0.42 0.42 0.40 0.40 0.40 0.42 0.42 0.42 0.42 0.44 0.44 0.46 0.46 0.46 0.48 0.48 0.48 0.48 0.48 0.46 0.46 0.46 0.46 0.48 0.48 0.48 0.48 0.50 0.52 0.52 0.54 0.56 0.56 0.56 0.58 0.56 0.56 0.54 0.54 0.54 0.54 0.54 0.54 0.54 0.54 0.52 0.52 0.48 0.48 0.48 0.46 0.46 0.44 0.44 0.40 0.40
0.50 0.48 0.48 0.44 0.44 0.42 0.40 0.40 0.38 0.38 0.36 0.36 0.36 0.36 0.36 0.36 0.34 0.36 0.36 0.36 0.38 0.38 0.38 0.40 0.40 0.42 0.42 0.42 0.44 0.44 0.44 0.44 0.44 0.44 0.44 0.46 0.46 0.46 0.46 0.46 0.46 0.48 0.48 0.48 0.50 0.52 0.54 0.54 0.54 0.54 0.54 0.54 0.54 0.54 0.54 0.56 0.54 0.52 0.50 0.50 0.46 0.44 0.42 0.42 0.42 0.40 0.40 0.38 0.36
0.46 0.44 0.42 0.38 0.38 0.36 0.34 0.34 0.32 0.32 0.30 0.30 0.30 0.30 0.30 0.30 0.30 0.30 0.32 0.32 0.34 0.34 0.36 0.36 0.36 0.38 0.38 0.38 0.40 0.40 0.40 0.40 0.42 0.42 0.42 0.44 0.44 0.44 0.44 0.44 0.44 0.44 0.46 0.46 0.48 0.48 0.50 0.52 0.50 0.50 0.52 0.52 0.52 0.52 0.52 0.52 0.50 0.48 0.46 0.44 0.38 0.36 0.36 0.36 0.36 0.36 0.34 0.34 0.32
0.40 0.38 0.36 0.32 0.32 0.30 0.28 0.28 0.28 0.26 0.26 0.26 0.26 0.26 0.26 0.26 0.28 0.28 0.28 0.30 0.30 0.32 0.32 0.32 0.34 0.34 0.34 0.34 0.34 0.36 0.38 0.38 0.40 0.40 0.42 0.42 0.42 0.44 0.44 0.44 0.44 0.44 0.44 0.44 0.46 0.46 0.46 0.46 0.46 0.46 0.46 0.46 0.44 0.44 0.44 0.44 0.42 0.40 0.38 0.32 0.30 0.30 0.30 0.30 0.30 0.30 0.30 0.28 0.26
0.34 0.32 0.30 0.28 0.26 0.26 0.24 0.24 0.24 0.22 0.22 0.22 0.22 0.22 0.24 0.24 0.24 0.24 0.26 0.26 0.28 0.28 0.30 0.32 0.32 0.34 0.34 0.34 0.34 0.36 0.36 0.38 0.38 0.40 0.40 0.42 0.42 0.44 0.44 0.44 0.44 0.44 0.44 0.44 0.44 0.46 0.46 0.44 0.44 0.44 0.42 0.40 0.40 0.38 0.38 0.36 0.34 0.32 0.30 0.28 0.28 0.28 0.28 0.28 0.26 0.26 0.26 0.24 0.22
0.28 0.26 0.26 0.24 0.22 0.22 0.22 0.22 0.20 0.20 0.20 0.20 0.20 0.20 0.20 0.20 0.20 0.22 0.22 0.24 0.26 0.26 0.28 0.30 0.32 0.32 0.32 0.32 0.32 0.34 0.36 0.36 0.36 0.38 0.38 0.40 0.42 0.44 0.44 0.44 0.46 0.46 0.46 0.46 0.46 0.46 0.46 0.46 0.44 0.44 0.42 0.40 0.38 0.36 0.36 0.34 0.32 0.30 0.28 0.28 0.28 0.28 0.28 0.28 0.26 0.24 0.24 0.22 0.20
0.24 0.24 0.22 0.22 0.22 0.20 0.20 0.20 0.20 0.20 0.18 0.18 0.18 0.18 0.18 0.18 0.18 0.18 0.20 0.22 0.24 0.26 0.26 0.30 0.30 0.30 0.30 0.30 0.32 0.32 0.32 0.34 0.34 0.36 0.38 0.38 0.40 0.42 0.44 0.46 0.46 0.48 0.48 0.48 0.46 0.46 0.44 0.44 0.44 0.42 0.42 0.40 0.38 0.36 0.36 0.34 0.32 0.30 0.28 0.28 0.28 0.28 0.28 0.28 0.26 0.26 0.24 0.22 0.22
0.22 0.22 0.22 0.20 0.20 0.20 0.20 0.20 0.18 0.18 0.18 0.16 0.16 0.16 0.16 0.16 0.16 0.18 0.18 0.20 0.22 0.24 0.26 0.28 0.30 0.30 0.30 0.30 0.30 0.30 0.32 0.32 0.34 0.34 0.36 0.38 0.38 0.40 0.42 0.44 0.44 0.46 0.46 0.46 0.46 0.44 0.42 0.42 0.42 0.42 0.40 0.40 0.36 0.34 0.34 0.32 0.30 0.30 0.28 0.28 0.28 0.28 0.28 0.26 0.26 0.26 0.24 0.22 0.22
0.22 0.22 0.22 0.20 0.20 0.20 0.18 0.18 0.18 0.16 0.16 0.16 0.16 0.16 0.16 0.16 0.16 0.18 0.18 0.20 0.24 0.26 0.28 0.28 0.30 0.32 0.32 0.32 0.32 0.32 0.32 0.32 0.32 0.34 0.36 0.38 0.38 0.38 0.40 0.40 0.42 0.42 0.44 0.44 0.42 0.42 0.40 0.40 0.40 0.40 0.38 0.38 0.36 0.34 0.34 0.32 0.30 0.28 0.28 0.28 0.26 0.26 0.26 0.26 0.26 0.26 0.24 0.22 0.22
0.22 0.22 0.20 0.18 0.18 0.18 0.16 0.16 0.16 0.16 0.16 0.16 0.16 0.16 0.16 0.16 0.18 0.20 0.20 0.24 0.26 0.28 0.28 0.30 0.32 0.32 0.32 0.32 0.32 0.34 0.34 0.34 0.34 0.36 0.36 0.38 0.36 0.36 0.36 0.36 0.38 0.38 0.40 0.40 0.40 0.38 0.38 0.38 0.38 0.36 0.36 0.36 0.36 0.34 0.32 0.32 0.30 0.28 0.28 0.28 0.26 0.26 0.26 0.26 0.24 0.24 0.24 0.22 0.22
0.22 0.20 0.18 0.18 0.16 0.16 0.16 0.16 0.16 0.16 0.16 0.16 0.16 0.18 0.18 0.18 0.20 0.22 0.24 0.26 0.28 0.28 0.30 0.32 0.34 0.34 0.34 0.36 0.36 0.36 0.36 0.36 0.36 0.36 0.38 0.38 0.36 0.36 0.36 0.34 0.34 0.36 0.36 0.36 0.36 0.36 0.36 0.34 0.34 0.34 0.32 0.34 0.32 0.32 0.32 0.32 0.30 0.28 0.28 0.28 0.28 0.26 0.24 0.24 0.24 0.24 0.22 0.22 0.22
0.20 0.18 0.18 0.16 0.16 0.16 0.16 0.16 0.16 0.16 0.16 0.18 0.18 0.20 0.20 0.22 0.22 0.24 0.28 0.28 0.30 0.32 0.34 0.36 0.36 0.38 0.38 0.38 0.38 0.38 0.38 0.38 0.38 0.38 0.38 0.38 0.36 0.36 0.34 0.34 0.34 0.34 0.34 0.34 0.36 0.36 0.36 0.34 0.32 0.32 0.30 0.30 0.30 0.30 0.30 0.30 0.30 0.28 0.28 0.28 0.26 0.26 0.24 0.24 0.24 0.22 0.22 0.22 0.20
0.20 0.18 0.16 0.16 0.16 0.16 0.16 0.16 0.16 0.16 0.18 0.18 0.20 0.22 0.22 0.24 0.26 0.28 0.30 0.32 0.32 0.34 0.36 0.38 0.40 0.40 0.40 0.40 0.40 0.40 0.40 0.40 0.40 0.40 0.38 0.38 0.36 0.36 0.34 0.34 0.34 0.34 0.34 0.34 0.34 0.34 0.34 0.34 0.32 0.32 0.30 0.30 0.30 0.30 0.30 0.30 0.28 0.28 0.28 0.26 0.26 0.26 0.24 0.24 0.22 0.22 0.22 0.20 0.20
0.18 0.18 0.16 0.16 0.16 0.16 0.16 0.16 0.18 0.18 0.20 0.22 0.24 0.24 0.26 0.26 0.28 0.30 0.32 0.34 0.34 0.36 0.38 0.40 0.40 0.42 0.42 0.42 0.42 0.42 0.42 0.44 0.42 0.42 0.40 0.38 0.36 0.36 0.34 0.34 0.34 0.34 0.34 0.34 0.34 0.34 0.34 0.34 0.32 0.32 0.30 0.30 0.30 0.30 0.30 0.30 0.28 0.28 0.26 0.26 0.26 0.24 0.24 0.24 0.22 0.22 0.20 0.20 0.20
0.18 0.18 0.16 0.16 0.16 0.18 0.18 0.18 0.18 0.20 0.22 0.24 0.26 0.28 0.28 0.30 0.30 0.32 0.32 0.34 0.36 0.38 0.38 0.40 0.42 0.42 0.44 0.44 0.44 0.44 0.46 0.46 0.44 0.42 0.40 0.38 0.38 0.36 0.36 0.36 0.36 0.34 0.34 0.34 0.34 0.34 0.34 0.34 0.32 0.32 0.30 0.30 0.28 0.28 0.28 0.28 0.28 0.28 0.26 0.26 0.26 0.24 0.24 0.24 0.22 0.22 0.20 0.20 0.18
0.18 0.16 0.16 0.18 0.18 0.18 0.18 0.20 0.20 0.24 0.26 0.28 0.28 0.30 0.30 0.32 0.32 0.32 0.32 0.34 0.36 0.36 0.38 0.40 0.42 0.42 0.44 0.46 0.46 0.46 0.46 0.46 0.46 0.44 0.42 0.40 0.38 0.38 0.38 0.36 0.36 0.36 0.36 0.34 0.34 0.34 0.34 0.34 0.34 0.32 0.32 0.30 0.28 0.28 0.26 0.26 0.26 0.26 0.26 0.26 0.26 0.24 0.24 0.22 0.22 0.22 0.20 0.20 0.20
0.18 0.18 0.18 0.18 0.18 0.20 0.20 0.22 0.22 0.26 0.28 0.30 0.30 0.32 0.32 0.32 0.32 0.32 0.32 0.34 0.34 0.36 0.38 0.38 0.40 0.42 0.44 0.46 0.46 0.48 0.48 0.46 0.46 0.44 0.44 0.40 0.40 0.38 0.38 0.38 0.36 0.36 0.36 0.34 0.34 0.34 0.34 0.34 0.34 0.32 0.32 0.30 0.28 0.26 0.26 0.26 0.26 0.26 0.26 0.26 0.26 0.24 0.24 0.22 0.22 0.22 0.20 0.20 0.20
0.18 0.18 0.18 0.20 0.20 0.22 0.22 0.24 0.24 0.28 0.30 0.32 0.32 0.32 0.34 0.34 0.34 0.34 0.34 0.34 0.34 0.34 0.36 0.38 0.40 0.40 0.42 0.44 0.46 0.46 0.46 0.46 0.46 0.44 0.42 0.40 0.40 0.40 0.38 0.38 0.36 0.36 0.34 0.34 0.32 0.32 0.32 0.32 0.32 0.32 0.30 0.30 0.28 0.26 0.26 0.26 0.26 0.24 0.24 0.24 0.26 0.24 0.24 0.22 0.22 0.22 0.20 0.20 0.20
0.18 0.18 0.20 0.20 0.22 0.24 0.24 0.26 0.28 0.30 0.32 0.32 0.34 0.34 0.34 0.34 0.34 0.34 0.34 0.34 0.34 0.36 0.36 0.36 0.38 0.40 0.42 0.42 0.44 0.44 0.44 0.44 0.44 0.44 0.42 0.42 0.40 0.38 0.38 0.36 0.36 0.34 0.34 0.32 0.32 0.32 0.30 0.30 0.30 0.30 0.28 0.28 0.26 0.26 0.26 0.24 0.24 0.24 0.24 0.24 0.24 0.24 0.22 0.22 0.22 0.22 0.20 0.20 0.20
0.18 0.20 0.20 0.22 0.24 0.26 0.26 0.28 0.30 0.30 0.32 0.34 0.34 0.34 0.34 0.34 0.36 0.34 0.34 0.34 0.36 0.36 0.36 0.36 0.38 0.38 0.40 0.40 0.40 0.42 0.42 0.42 0.42 0.42 0.40 0.40 0.38 0.36 0.36 0.34 0.34 0.32 0.32 0.30 0.30 0.30 0.30 0.28 0.28 0.28 0.26 0.26 0.26 0.24 0.24 0.24 0.24 0.24 0.24 0.22 0.22 0.22 0.22 0.22 0.22 0.20 0.20 0.20 0.20
0.20 0.20 0.22 0.24 0.26 0.28 0.28 0.30 0.30 0.32 0.32 0.32 0.34 0.34 0.34 0.34 0.36 0.34 0.36 0.36 0.36 0.36 0.36 0.36 0.36 0.38 0.38 0.38 0.38 0.38 0.38 0.38 0.38 0.38 0.38 0.36 0.36 0.34 0.32 0.32 0.30 0.30 0.30 0.30 0.28 0.28 0.28 0.28 0.26 0.26 0.26 0.24 0.24 0.24 0.22 0.22 0.22 0.22 0.22 0.22 0.22 0.22 0.22 0.20 0.20 0.20 0.20 0.20 0.20
0.20 0.22 0.24 0.26 0.28 0.28 0.30 0.32 0.32 0.32 0.32 0.32 0.32 0.34 0.34 0.34 0.34 0.34 0.34 0.36 0.36 0.36 0.36 0.36 0.36 0.36 0.36 0.36 0.36 0.36 0.36 0.36 0.36 0.36 0.34 0.34 0.32 0.32 0.30 0.30 0.28 0.28 0.28 0.28 0.28 0.28 0.26 0.26 0.26 0.26 0.24 0.24 0.22 0.22 0.22 0.22 0.22 0.20 0.20 0.20 0.20 0.20 0.20 0.20 0.20 0.20 0.20 0.18 0.18
0.22 0.24 0.26 0.28 0.28 0.30 0.30 0.32 0.32 0.32 0.32 0.32 0.32 0.32 0.32 0.32 0.34 0.34 0.34 0.36 0.36 0.36 0.36 0.36 0.36 0.36 0.36 0.36 0.34 0.34 0.34 0.34 0.32 0.32 0.30 0.30 0.30 0.30 0.28 0.28 0.28 0.28 0.28 0.28 0.26 0.26 0.26 0.26 0.26 0.24 0.24 0.22 0.22 0.22 0.22 0.22 0.20 0.20 0.20 0.20 0.20 0.20 0.18 0.18 0.18 0.18 0.18 0.18 0.18
0.24 0.26 0.26 0.28 0.30 0.30 0.32 0.32 0.32 0.32 0.32 0.32 0.32 0.32 0.32 0.32 0.32 0.34 0.34 0.34 0.34 0.34 0.34 0.34 0.34 0.34 0.34 0.34 0.34 0.32 0.32 0.30 0.30 0.28 0.28 0.28 0.28 0.28 0.28 0.28 0.28 0.28 0.28 0.26 0.26 0.26 0.26 0.26 0.24 0.24 0.22 0.22 0.22 0.22 0.22 0.20 0.20 0.20 0.20 0.20 0.18 0.18 0.18 0.18 0.18 0.18 0.18 0.18 0.18
0.24 0.26 0.28 0.28 0.30 0.30 0.32 0.32 0.32 0.32 0.32 0.32 0.32 0.32 0.32 0.32 0.32 0.32 0.32 0.32 0.32 0.32 0.32 0.32 0.32 0.32 0.32 0.32 0.32 0.30 0.30 0.30 0.28 0.28 0.28 0.28 0.28 0.28 0.28 0.28 0.28 0.28 0.26 0.26 0.26 0.26 0.26 0.26 0.24 0.24 0.22 0.22 0.22 0.20 0.20 0.20 0.20 0.18 0.18 0.18 0.18 0.18 0.18 0.18 0.18 0.18 0.20 0.20 0.20
0.26 0.26 0.28 0.28 0.30 0.30 0.30 0.30 0.32 0.32 0.32 0.32 0.32 0.32 0.32 0.32 0.32 0.32 0.32 0.32 0.32 0.32 0.32 0.32 0.32 0.32 0.32 0.30 0.30 0.30 0.30 0.30 0.28 0.28 0.28 0.28 0.28 0.28 0.28 0.26 0.26 0.26 0.26 0.26 0.26 0.26 0.24 0.24 0.24 0.24 0.22 0.20 0.20 0.20 0.18 0.18 0.18 0.18 0.18 0.18 0.18 0.18 0.18 0.18 0.18 0.20 0.20 0.20 0.20
0.26 0.26 0.28 0.28 0.30 0.30 0.30 0.30 0.32 0.32 0.32 0.32 0.32 0.32 0.32 0.32 0.32 0.32 0.32 0.30 0.30 0.30 0.30 0.30 0.30 0.30 0.30 0.30 0.30 0.28 0.28 0.28 0.28 0.28 0.28 0.26 0.26 0.26 0.26 0.26 0.26 0.24 0.24 0.24 0.24 0.24 0.24 0.24 0.22 0.22 0.22 0.22 0.20 0.20 0.18 0.18 0.18 0.18 0.18 0.18 0.18 0.18 0.18 0.18 0.20 0.20 0.20 0.20 0.20
0.26 0.26 0.28 0.28 0.28 0.30 0.30 0.30 0.32 0.32 0.32 0.32 0.32 0.32 0.32 0.32 0.30 0.30 0.30 0.30 0.30 0.30 0.30 0.30 0.30 0.30 0.30 0.30 0.30 0.28 0.28 0.28 0.28 0.26 0.26 0.26 0.26 0.24 0.24 0.24 0.22 0.22 0.22 0.22 0.22 0.22 0.22 0.22 0.22 0.22 0.22 0.22 0.20 0.20 0.20 0.20 0.18 0.18 0.18 0.18 0.20 0.20 0.20 0.20 0.20 0.20 0.20 0.20 0.20
0.26 0.26 0.26 0.28 0.28 0.28 0.30 0.30 0.30 0.30 0.32 0.32 0.32 0.32 0.32 0.30 0.30 0.30 0.30 0.30 0.30 0.30 0.30 0.30 0.32 0.32 0.30 0.30 0.28 0.28 0.28 0.28 0.26 0.26 0.26 0.24 0.24 0.22 0.22 0.22 0.20 0.20 0.20 0.22 0.22 0.22 0.22 0.20 0.20 0.20 0.20 0.20 0.20 0.20 0.20 0.20 0.20 0.20 0.20 0.20 0.20 0.20 0.20 0.20 0.20 0.20 0.20 0.20 0.20
0.26 0.26 0.26 0.26 0.28 0.28 0.28 0.30 0.30 0.30 0.30 0.30 0.30 0.30 0.30 0.30 0.30 0.30 0.30 0.30 0.30 0.30 0.30 0.32 0.32 0.32 0.30 0.30 0.30 0.28 0.28 0.28 0.26 0.26 0.24 0.22 0.22 0.20 0.20 0.20 0.20 0.20 0.20 0.22 0.22 0.20 0.20 0.18 0.18 0.18 0.18 0.18 0.18 0.20 0.20 0.20 0.20 0.20 0.20 0.20 0.20 0.20 0.20 0.20 0.22 0.22 0.22 0.22 0.22
0.24 0.26 0.26 0.26 0.26 0.26 0.28 0.28 0.30 0.30 0.30 0.30 0.30 0.30 0.30 0.30 0.28 0.28 0.30 0.30 0.30 0.30 0.30 0.30 0.32 0.32 0.30 0.30 0.28 0.28 0.26 0.26 0.24 0.24 0.22 0.22 0.20 0.20 0.20 0.18 0.20 0.20 0.20 0.22 0.20 0.20 0.18 0.18 0.18 0.18 0.18 0.18 0.18 0.18 0.18 0.18 0.18 0.20 0.20 0.18 0.20 0.20 0.20 0.20 0.22 0.22 0.22 0.22 0.22
0.24 0.24 0.26 0.26 0.26 0.26 0.26 0.28 0.28 0.30 0.30 0.30 0.28 0.28 0.28 0.28 0.28 0.28 0.28 0.28 0.28 0.28 0.30 0.30 0.30 0.30 0.30 0.28 0.28 0.26 0.26 0.24 0.24 0.22 0.20 0.20 0.18 0.18 0.18 0.18 0.18 0.20 0.20 0.20 0.18 0.18 0.18 0.16 0.16 0.16 0.16 0.16 0.16 0.16 0.16 0.16 0.18 0.18 0.18 0.16 0.18 0.18 0.20 0.20 0.20 0.22 0.22 0.22 0.22
0.24 0.24 0.24 0.24 0.24 0.26 0.26 0.26 0.28 0.28 0.28 0.26 0.26 0.26 0.26 0.26 0.26 0.26 0.26 0.28 0.28 0.28 0.28 0.30 0.30 0.28 0.28 0.26 0.24 0.24 0.22 0.22 0.22 0.20 0.20 0.18 0.18 0.18 0.18 0.18 0.18 0.18 0.20 0.20 0.18 0.18 0.18 0.16 0.16 0.16 0.16 0.16 0.16 0.16 0.16 0.16 0.16 0.16 0.16 0.16 0.16 0.18 0.18 0.20 0.20 0.20 0.22 0.22 0.22
0.24 0.24 0.24 0.24 0.24 0.24 0.24 0.26 0.26 0.26 0.26 0.26 0.24 0.24 0.24 0.24 0.24 0.24 0.24 0.26 0.26 0.26 0.26 0.28 0.28 0.26 0.24 0.24 0.22 0.22 0.22 0.20 0.20 0.20 0.20 0.18 0.18 0.18 0.16 0.16 0.18 0.18 0.18 0.18 0.18 0.18 0.18 0.18 0.16 0.16 0.16 0.16 0.16 0.16 0.16 0.14 0.16 0.14 0.14 0.16 0.16 0.16 0.18 0.18 0.20 0.20 0.22 0.22 0.22
0.24 0.24 0.24 0.24 0.24 0.24 0.24 0.24 0.24 0.24 0.24 0.24 0.24 0.22 0.22 0.22 0.22 0.22 0.22 0.24 0.24 0.24 0.24 0.26 0.24 0.24 0.22 0.22 0.22 0.20 0.20 0.20 0.20 0.18 0.18 0.18 0.18 0.16 0.16 0.16 0.16 0.16 0.18 0.18 0.18 0.18 0.18 0.18 0.18 0.18 0.16 0.16 0.16 0.16 0.16 0.14 0.14 0.14 0.14 0.16 0.16 0.16 0.18 0.18 0.18 0.20 0.20 0.22 0.22
0.24 0.24 0.24 0.24 0.24 0.24 0.24 0.24 0.24 0.24 0.22 0.22 0.22 0.22 0.22 0.22 0.22 0.22 0.22 0.22 0.22 0.22 0.22 0.24 0.22 0.22 0.20 0.20 0.20 0.20 0.20 0.18 0.18 0.18 0.18 0.18 0.16 0.16 0.16 0.16 0.16 0.16 0.16 0.18 0.18 0.18 0.18 0.18 0.18 0.18 0.18 0.16 0.16 0.16 0.16 0.14 0.14 0.14 0.14 0.16 0.16 0.16 0.18 0.18 0.18 0.20 0.20 0.22 0.22
0.24 0.24 0.24 0.24 0.24 0.24 0.24 0.24 0.22 0.22 0.22 0.22 0.22 0.22 0.22 0.22 0.22 0.22 0.22 0.22 0.22 0.20 0.20 0.22 0.20 0.20 0.20 0.20 0.20 0.20 0.20 0.18 0.18 0.18 0.18 0.18 0.18 0.16 0.16 0.16 0.16 0.16 0.16 0.18 0.18 0.18 0.18 0.18 0.18 0.18 0.18 0.18 0.16 0.16 0.16 0.14 0.14 0.14 0.16 0.16 0.16 0.16 0.18 0.18 0.20 0.20 0.20 0.22 0.22
0.24 0.26 0.24 0.24 0.24 0.24 0.24 0.24 0.22 0.22 0.22 0.22 0.22 0.22 0.22 0.22 0.22 0.22 0.22 0.22 0.22 0.20 0.20 0.20 0.20 0.20 0.20 0.20 0.20 0.20 0.20 0.20 0.18 0.18 0.18 0.18 0.18 0.16 0.16 0.16 0.16 0.16 0.16 0.18 0.18 0.18 0.18 0.18 0.18 0.18 0.18 0.16 0.16 0.16 0.16 0.14 0.14 0.14 0.16 0.16 0.16 0.18 0.18 0.20 0.20 0.20 0.22 0.22 0.24
0.26 0.26 0.26 0.26 0.24 0.24 0.24 0.24 0.22 0.22 0.22 0.22 0.22 0.22 0.22 0.22 0.22 0.22 0.22 0.24 0.22 0.22 0.22 0.20 0.20 0.20 0.20 0.20 0.20 0.20 0.20 0.20 0.18 0.18 0.18 0.18 0.18 0.16 0.16 0.16 0.16 0.16 0.16 0.18 0.18 0.18 0.18 0.18 0.18 0.18 0.18 0.16 0.16 0.16 0.14 0.14 0.14 0.14 0.16 0.16 0.16 0.18 0.20 0.20 0.22 0.22 0.22 0.24 0.24
0.26 0.26 0.26 0.26 0.26 0.24 0.24 0.24 0.24 0.24 0.22 0.22 0.22 0.22 0.22 0.22 0.22 0.22 0.24 0.24 0.24 0.22 0.22 0.22 0.20 0.20 0.20 0.20 0.20 0.20 0.18 0.18 0.18 0.18 0.18 0.18 0.18 0.16 0.16 0.16 0.16 0.16 0.16 0.16 0.16 0.16 0.16 0.18 0.18 0.18 0.16 0.16 0.16 0.16 0.14 0.14 0.14 0.14 0.16 0.16 0.18 0.18 0.20 0.22 0.22 0.22 0.22 0.22 0.22
0.26 0.26 0.26 0.26 0.26 0.26 0.24 0.24 0.22 0.22 0.22 0.22 0.20 0.20 0.20 0.22 0.22 0.22 0.24 0.24 0.24 0.22 0.22 0.22 0.20 0.20 0.20 0.20 0.18 0.18 0.18 0.18 0.18 0.18 0.18 0.18 0.18 0.16 0.16 0.16 0.16 0.16 0.16 0.16 0.16 0.16 0.16 0.16 0.16 0.16 0.16 0.16 0.16 0.16 0.16 0.16 0.14 0.16 0.16 0.16 0.18 0.18 0.20 0.22 0.22 0.22 0.22 0.22 0.22
Wind_Speed
38 39 40 40 41 42 42 43 44 45 45 46 46 47 48 48 48 49 49 50 50 51 51 52 52 52 53 53 53 52 52 52 51 51 50 50 50 50 50 50 49 49 48 48 47 46 45 44 44 43 43 42 41 40 39 38 39 39 39 38 37 37 36 36 36 36 36 36 36
39 40 41 42 42 43 44 44 45 45 46 46 47 48 48 49 49 49 50 51 51 52 52 52 53 53 53 53 52 52 51 51 51 50 50 50 49 50 50 49 49 49 48 47 46 45 45 44 43 42 41 40 38 37 36 36 40 39 37 36 36 36 35 35 35 35 35 35 35
41 41 42 43 43 44 44 45 46 46 47 47 48 48 49 49 50 50 51 51 52 52 53 53 53 53 53 53 52 52 51 51 51 51 50 50 50 50 50 49 49 48 47 46 45 45 44 44 42 40 39 38 35 33 32 35 36 36 35 35 35 35 34 34 34 34 34 33 33
41 42 43 43 44 45 45 46 46 47 47 48 48 49 49 50 50 51 52 52 53 53 53 53 53 53 53 53 52 52 52 51 51 51 51 50 50 50 49 49 48 47 46 45 44 44 44 43 41 38 36 35 33 32 33 35 36 35 35 34 34 34 33 32 32 32 32 32 32
42 42 43 44 44 45 45 46 47 47 48 48 49 50 50 51 51 52 53 53 53 54 54 54 54 54 53 53 53 53 52 52 52 51 51 50 50 49 48 48 47 46 45 44 43 43 42 41 38 36 34 32 31 32 34 35 35 34 34 34 33 32 31 31 31 31 30 30 31
42 43 43 44 45 45 46 46 47 48 48 49 50 50 51 52 52 53 53 54 54 54 54 54 54 54 54 54 53 53 53 53 52 52 51 50 50 49 48 47 46 45 44 43 42 41 40 37 35 33 32 31 31 32 33 34 34 34 33 33 31 31 30 31 31 31 30 30 30
43 43 44 45 45 46 47 47 48 48 49 50 50 51 52 53 53 54 54 54 54 55 55 55 55 54 54 54 54 54 53 53 53 52 51 50 49 48 47 46 45 44 42 41 40 39 37 35 32 31 30 30 31 31 32 32 32 32 32 31 31 31 31 31 31 31 31 31 31
43 44 45 45 46 47 47 48 49 49 50 50 51 52 53 53 54 54 55 54 54 55 55 55 55 54 54 54 54 54 53 53 52 51 51 49 48 47 46 45 43 42 41 40 39 37 36 34 31 30 30 30 31 31 31 31 31 31 31 31 31 31 31 31 31 31 31 32 33
44 45 45 46 47 47 48 49 50 50 51 51 52 53 53 54 54 55 55 54 54 54 54 54 54 54 54 53 53 53 53 52 51 50 49 48 46 45 44 43 42 41 40 38 37 35 34 32 31 30 29 30 30 30 30 30 30 30 30 31 31 31 31 31 31 32 32 33 34
44 45 46 47 48 48 49 50 50 51 51 52 53 53 54 54 54 54 54 54 54 54 54 53 53 53 53 53 52 52 51 50 49 48 47 45 44 42 41 40 39 38 37 36 34 33 33 32 31 30 29 28 28 28 28 28 29 30 30 31 31 31 32 32 32 33 33 34 35
45 46 47 48 48 49 50 51 51 52 52 53 53 54 54 54 54 54 54 54 54 53 53 53 52 52 52 51 51 50 49 48 47 46 44 42 40 39 37 36 35 34 33 33 33 32 32 31 31 30 29 29 28 28 28 28 28 29 30 30 31 31 32 33 33 34 34 35 35
46 47 48 48 49 50 51 51 52 52 53 53 53 54 54 53 53 54 54 54 53 53 53 52 52 51 51 50 49 48 47 45 44 43 41 38 37 35 34 32 31 31 30 30 30 30 30 29 29 29 28 28 28 28 28 28 28 29 29 30 31 31 32 33 34 34 35 35 36
46 48 49 49 50 51 52 52 52 53 53 53 53 53 53 53 53 53 53 53 53 53 52 52 51 50 49 48 47 46 44 42 41 39 37 35 33 31 30 29 29 28 28 28 27 27 27 27 26 26 27 27 27 27 27 28 29 29 30 31 31 32 33 34 34 35 35 36 37
48 49 50 50 51 52 52 52 53 53 53 53 52 52 52 52 52 52 52 53 52 52 51 51 50 49 48 46 44 43 41 39 37 35 33 32 30 29 28 27 26 26 26 25 25 25 25 25 25 25 25 26 26 27 27 28 29 30 31 32 33 33 34 34 35 35 36 36 37
49 50 50 51 52 52 52 52 52 52 52 52 52 51 51 51 52 52 52 52 52 51 50 49 49 48 46 43 41 39 37 36 34 32 30 29 28 26 26 25 25 24 24 23 23 23 23 24 24 24 25 25 26 26 27 28 30 31 32 33 33 34 34 35 35 36 36 37 37
50 50 51 51 52 52 52 52 52 52 51 51 51 50 51 51 51 51 51 51 51 50 49 48 47 45 43 40 38 36 35 33 31 29 28 27 26 25 24 24 23 23 22 22 22 23 23 23 24 24 25 25 26 26 27 28 29 30 31 32 33 33 34 35 35 35 36 36 36
50 51 51 52 52 52 52 52 51 51 50 50 50 50 50 50 50 51 51 50 50 49 48 46 44 42 40 38 35 33 32 31 29 27 26 25 24 24 23 23 22 22 23 23 23 23 24 24 24 24 25 25 26 27 27 28 29 30 31 32 32 33 34 34 34 35 35 35 35
51 51 51 52 52 52 52 51 51 50 49 49 49 49 49 49 50 50 50 50 48 47 46 44 42 40 37 35 32 30 29 28 27 26 25 24 23 23 22 23 23 23 23 23 24 24 24 24 25 25 26 26 27 28 28 29 30 30 31 32 32 33 33 34 34 34 34 34 34
51 51 52 52 52 51 51 51 50 49 49 48 48 48 48 49 49 49 49 49 47 46 44 42 40 38 35 32 30 28 26 25 25 24 24 23 22 22 22 23 23 24 24 24 25 25 25 26 26 26 27 27 28 29 29 30 30 31 31 32 32 33 33 33 34 34 34 34 34
51 51 51 51 51 51 50 50 49 48 48 47 47 48 48 48 49 49 48 47 46 44 42 40 38 36 33 30 28 26 25 24 24 23 23 22 22 22 23 24 24 25 25 25 25 26 26 27 27 28 28 29 29 30 30 31 31 32 32 32 32 33 33 33 34 34 34 34 35
51 51 51 51 51 50 49 48 48 47 47 47 47 47 48 48 48 48 47 45 44 42 40 38 36 33 31 29 27 25 24 23 23 23 22 22 22 23 24 24 25 25 25 26 26 26 27 27 28 28 29 29 30 30 31 31 32 32 32 32 33 33 33 34 34 34 34 35 35
51 51 51 51 50 49 48 47 47 46 46 47 47 47 47 47 47 46 45 44 42 40 38 36 34 31 29 27 25 24 23 23 22 22 22 22 23 23 24 24 25 25 26 26 26 26 27 27 28 28 29 29 30 30 31 31 32 32 32 33 33 33 34 34 34 34 35 35 35
51 51 50 50 49 48 47 46 46 46 46 46 47 47 47 46 46 45 44 42 40 38 36 34 32 30 28 26 25 24 23 23 22 22 22 22 23 23 24 24 25 25 25 26 26 26 27 27 28 28 29 29 30 30 31 31 32 32 32 33 33 33 34 34 34 35 35 35 36
51 50 50 49 48 47 46 46 46 46 46 46 46 46 46 45 45 44 42 40 38 36 34 32 30 29 27 26 24 23 23 22 22 22 22 22 22 23 23 24 24 25 25 26 26 26 27 27 28 28 29 29 30 31 31 31 32 32 32 33 33 34 34 34 35 35 35 36 36
50 50 49 49 48 47 46 46 46 46 47 47 46 46 45 44 43 42 40 39 37 35 33 31 29 28 26 25 24 23 23 22 22 22 22 22 22 23 23 24 25 25 26 26 27 28 28 28 29 29 30 30 31 31 31 32 32 32 33 33 34 34 34 35 35 35 36 36 36
50 50 49 48 47 46 46 46 46 46 47 47 46 45 44 43 42 40 39 37 35 33 32 30 29 27 26 25 24 23 23 22 22 22 22 23 23 24 25 25 26 26 27 28 28 29 29 30 30 30 31 31 31 32 32 32 33 33 33 34 34 34 35 35 36 36 36 36 36
49 49 48 48 47 46 46 46 46 47 47 47 46 45 43 42 40 39 37 35 34 32 31 29 28 27 26 25 24 23 23 22 22 23 23 24 24 25 26 27 27 28 28 29 30 30 30 31 31 31 31 32 32 32 33 33 33 33 34 34 35 35 35 36 36 36 36 36 36
49 49 48 47 46 46 46 46 46 47 47 46 45 44 42 41 39 37 35 34 32 31 30 28 27 26 25 24 23 23 23 23 23 24 24 25 26 26 27 28 28 29 29 30 30 31 31 31 32 32 32 32 32 32 33 33 34 34 34 35 35 35 36 36 36 36 36 36 35
48 48 48 47 46 46 46 46 47 47 46 46 44 43 41 39 38 36 34 33 31 30 29 28 27 26 25 24 23 23 23 23 24 24 25 26 27 27 28 28 29 30 30 31 31 31 31 31 32 32 32 33 32 33 33 33 34 34 35 35 35 35 36 36 36 36 36 35 35
48 48 47 47 46 46 46 46 46 46 46 45 43 42 40 38 37 35 33 32 30 29 28 27 26 25 24 24 24 24 24 24 25 25 26 27 27 28 28 29 29 30 30 31 31 31 31 31 32 32 32 33 33 33 33 34 34 34 35 35 35 35 36 36 36 36 35 35 34
48 47 47 46 46 46 46 46 46 46 45 44 42 41 39 37 35 33 32 30 29 28 27 27 26 25 24 24 24 24 24 25 25 26 26 27 28 28 29 30 30 30 31 31 31 31 31 31 32 32 32 33 33 33 34 34 34 35 35 35 35 35 35 35 35 35 34 34 33
47 47 47 46 46 46 46 46 46 45 44 42 41 39 38 36 34 32 31 30 29 28 27 26 25 25 24 24 24 24 24 25 26 26 27 28 28 29 29 30 30 31 31 31 31 31 31 32 32 32 33 33 34 34 34 34 35 35 35 35 35 35 35 35 34 34 33 33 32
47 47 46 46 46 46 46 46 45 44 43 41 40 38 36 35 33 31 30 29 28 27 27 26 25 25 24 24 24 24 25 25 26 27 28 28 29 29 30 30 30 31 31 31 31 31 31 32 32 33 33 34 34 34 35 35 35 35 35 35 35 35 35 34 34 33 32 32 32
47 46 46 46 46 46 46 46 45 43 42 40 38 37 35 33 32 31 30 28 27 27 26 25 25 24 24 24 24 25 25 26 27 27 28 29 29 30 30 30 30 30 31 31 31 31 32 32 33 33 34 34 35 35 35 35 35 35 35 35 35 34 34 34 33 33 32 32 32
46 46 46 46 46 46 46 45 44 42 41 39 37 36 34 32 31 30 29 28 27 26 26 25 24 24 24 24 24 25 26 27 27 28 29 29 29 30 30 30 30 31 31 31 31 32 32 33 33 34 34 35 35 35 35 35 35 35 35 35 34 34 34 33 33 32 32 32 32
46 46 46 46 46 46 45 44 43 41 40 38 36 34 33 31 30 29 28 27 27 26 25 25 24 24 24 24 25 26 26 27 28 28 29 29 29 30 30 30 30 31 31 31 31 32 33 33 34 34 35 35 35 35 35 35 35 35 35 34 34 33 33 33 32 32 32 32 31
46 46 46 46 46 46 45 43 42 40 38 37 35 33 32 30 29 28 28 27 26 26 25 24 24 24 24 25 26 26 27 28 28 29 29 29 29 30 30 30 30 31 31 32 32 33 33 34 34 35 35 35 35 35 35 35 35 35 34 34 33 33 32 32 31 31 31 31 31
46 46 46 46 46 45 44 42 41 39 37 35 33 32 30 29 28 28 27 26 25 25 25 24 24 24 25 25 26 27 28 28 29 29 29 29 29 29 30 30 31 31 32 32 32 33 34 34 35 35 35 35 35 35 35 35 35 34 34 33 32 31 31 31 30 30 30 30 30
46 46 46 46 45 44 43 41 40 38 36 34 32 31 30 29 28 27 26 25 25 25 24 24 24 25 25 26 27 28 28 29 29 29 29 29 29 30 30 30 31 31 32 32 33 34 34 35 35 36 36 35 35 35 35 35 35 34 33 32 31 30 30 30 29 29 29 29 29
46 46 45 45 44 43 42 40 38 36 35 33 31 30 29 28 27 26 26 25 24 24 24 24 25 25 26 27 27 28 29 29 29 29 29 29 30 30 30 30 31 31 32 33 33 34 35 35 36 36 36 35 35 35 35 35 34 33 31 30 30 30 29 29 29 28 28 28 28
46 45 45 44 43 42 41 39 37 35 33 32 30 29 28 27 26 26 25 25 24 24 24 25 25 26 27 27 28 28 29 29 29 29 29 29 30 30 30 30 31 31 32 33 33 34 35 35 36 36 36 35 35 35 35 34 33 32 30 30 29 29 29 28 28 27 27 27 27
Wind_Direction
317 317 317 317 317 316 316 316 316 315 315 315 315 314 314 314 313 313 312 312 312 311 311 311 310 310 310 310 309 308 307 306 305 304 304 303 302 302 302 302 302 302 302 301 301 299 297 295 292 290 289 287 286 285 285 286 286 287 288 288 289 290 291 292 291 291 291 291 292
318 317 317 317 317 317 316 316 316 315 315 314 314 314 314 313 313 313 312 312 312 312 311 311 311 310 310 310 309 308 307 306 306 305 305 304 304 303 303 302 302 302 301 301 300 299 298 295 293 291 289 287 286 285 285 286 287 287 288 289 290 291 292 292 291 291 291 293 294
318 318 318 318 318 317 317 316 316 316 315 315 314 314 314 314 313 313 313 313 312 312 312 311 311 310 310 309 308 308 306 306 305 305 305 305 305 304 304 303 303 302 301 301 300 298 297 295 292 290 288 287 287 286 286 287 287 287 287 288 291 293 293 292 292 291 292 294 295
319 319 319 318 318 318 317 317 316 316 315 315 315 314 314 314 314 314 313 313 313 312 312 311 310 310 309 309 308 307 306 305 304 304 304 304 304 305 304 304 303 302 301 300 299 297 295 293 290 288 287 288 289 289 288 287 286 285 286 289 292 294 294 292 291 291 291 293 295
319 319 319 319 318 318 317 317 317 316 316 316 315 315 315 315 314 314 314 313 313 312 311 311 310 309 309 308 307 306 305 305 304 303 303 303 303 303 303 303 302 301 301 299 298 295 293 290 287 286 287 289 289 289 288 286 285 285 287 291 294 295 294 292 291 289 289 290 294
320 320 319 319 319 318 318 317 317 317 317 316 316 316 315 315 315 314 314 313 312 312 311 310 309 309 308 307 307 306 305 304 304 303 302 302 301 301 301 301 301 300 300 298 296 293 290 288 286 287 288 289 288 288 288 288 287 288 291 295 297 296 294 292 289 287 287 289 293
320 320 320 319 319 319 318 318 318 318 317 317 317 316 316 315 315 315 314 313 312 312 311 310 309 308 307 307 306 306 305 304 304 303 302 301 300 300 299 299 299 299 299 297 295 291 288 287 287 289 290 290 290 291 292 293 293 294 296 298 298 296 293 290 287 286 287 290 294
321 320 320 320 320 320 319 319 319 318 318 318 317 317 316 316 316 315 314 314 313 312 311 310 309 308 307 307 306 306 305 305 304 303 303 302 300 299 298 297 297 298 298 296 293 290 288 288 288 289 291 292 293 294 295 297 297 298 297 296 295 292 290 288 287 287 289 292 295
321 321 321 321 320 320 320 320 319 319 318 318 318 317 317 317 316 316 315 314 313 311 310 309 308 308 308 307 307 306 306 305 305 304 303 302 301 300 299 298 297 297 297 295 292 290 289 290 290 290 290 291 291 292 294 296 296 296 294 292 291 290 288 288 288 290 292 295 297
322 322 321 321 321 321 320 320 320 319 319 319 318 318 318 317 317 316 315 314 313 312 311 310 309 309 308 308 308 307 307 306 306 305 304 303 302 301 300 299 298 297 296 294 293 292 292 292 292 292 290 289 288 288 289 292 294 294 293 291 290 290 290 290 291 293 295 297 299
322 322 322 321 321 321 321 320 320 320 320 319 319 319 318 317 317 316 315 314 313 312 311 310 310 310 310 309 309 309 308 307 307 306 305 304 304 303 302 301 299 298 296 295 295 294 294 294 293 293 292 290 288 287 287 290 293 295 295 293 292 292 292 293 294 295 297 298 299
322 322 322 321 321 321 321 321 321 321 320 320 319 319 318 317 317 316 315 315 314 313 312 312 312 312 312 311 311 310 309 309 308 307 306 305 305 305 304 303 302 300 298 297 297 296 296 295 294 293 293 292 291 289 288 289 292 295 296 296 295 294 294 295 296 297 298 298 298
322 322 322 322 322 322 322 322 321 321 321 320 320 319 318 318 317 317 316 316 315 315 314 314 314 314 313 313 312 311 311 310 310 309 308 308 307 307 306 304 303 302 301 300 300 299 299 297 296 295 295 294 293 291 289 289 290 293 295 296 296 296 296 296 297 297 297 297 297
323 323 323 323 323 323 322 322 322 321 321 320 320 320 319 319 319 318 318 318 318 317 317 317 316 315 315 313 313 312 312 312 312 311 310 310 309 308 307 305 304 303 303 302 302 302 301 300 299 298 298 297 295 293 291 290 290 292 293 295 296 296 296 296 296 296 296 296 295
324 324 324 324 324 323 323 322 322 322 321 321 321 321 320 320 321 321 321 320 320 320 319 319 318 317 315 314 314 314 315 315 314 314 313 312 311 309 307 306 305 305 304 304 304 303 302 301 301 300 300 299 298 296 295 294 293 293 294 295 295 296 296 296 296 295 295 294 295
325 325 325 324 324 323 323 323 322 322 322 322 322 322 322 322 323 323 323 323 322 322 322 321 320 318 317 316 316 317 317 316 316 315 314 313 311 310 309 308 308 307 307 306 305 304 303 302 302 301 301 300 300 299 298 297 297 297 296 296 296 296 296 295 295 295 294 295 295
325 325 325 325 324 324 324 323 323 323 323 322 323 323 323 324 324 324 325 324 324 324 324 323 321 319 318 317 318 319 318 317 316 315 314 313 312 312 312 312 311 311 310 309 307 305 304 304 303 303 302 302 301 301 300 300 299 299 298 298 297 296 296 296 295 295 296 296 297
326 325 325 325 324 324 324 324 324 324 323 323 324 324 324 325 325 325 325 325 325 325 325 324 322 320 319 319 320 320 318 317 315 314 314 314 314 315 315 315 314 313 312 311 309 308 307 306 305 304 304 303 303 302 302 301 301 300 300 299 298 297 297 297 297 297 297 297 298
326 325 325 325 325 325 325 325 325 324 324 324 324 324 325 325 325 326 326 326 326 326 325 324 322 321 320 321 321 320 318 317 315 315 315 315 316 316 316 315 314 313 312 311 310 309 308 308 307 306 306 305 304 304 304 303 303 302 302 301 300 299 299 298 298 298 298 298 298
326 326 326 326 325 325 325 325 325 325 325 325 325 325 325 325 325 325 326 326 326 326 325 324 322 321 321 322 321 320 319 318 317 316 316 317 317 316 315 314 313 312 312 311 311 310 310 309 308 307 307 306 306 306 305 305 305 304 303 303 302 301 300 299 299 299 298 298 298
326 326 326 326 326 326 326 326 325 325 325 325 325 325 324 324 325 325 326 326 326 326 325 323 322 322 322 322 321 321 320 320 319 319 318 318 317 316 314 314 313 313 313 312 312 311 310 310 309 308 307 307 307 306 306 305 305 304 304 303 302 301 301 300 299 299 299 298 298
326 326 327 326 326 326 326 326 325 325 326 325 325 324 324 324 324 325 326 326 326 325 324 323 323 322 322 322 321 321 321 321 321 321 320 319 317 316 315 314 314 314 314 313 313 312 311 310 309 308 307 306 306 305 305 304 304 304 303 303 302 302 301 301 300 300 299 299 299
327 327 327 327 326 326 326 326 325 326 326 325 325 324 324 324 324 325 325 326 326 325 324 324 323 322 322 322 322 322 322 322 322 322 321 320 318 317 316 316 316 315 314 313 312 311 310 309 308 307 306 306 305 305 305 305 304 304 304 303 303 303 302 302 301 301 301 300 300
327 327 327 327 326 326 326 325 325 325 325 325 325 324 324 324 324 325 325 325 325 325 324 324 323 322 322 322 322 322 322 323 323 322 321 321 320 319 318 317 316 315 314 312 311 311 310 309 308 308 307 307 307 307 306 306 306 306 305 305 305 304 304 303 303 303 302 302 301
328 327 327 327 326 326 326 325 325 325 325 325 324 324 324 324 324 324 324 324 324 324 324 323 323 322 322 322 322 322 323 323 323 322 322 321 320 319 318 317 316 315 314 313 312 312 311 311 310 310 310 309 309 309 309 308 308 307 307 307 306 306 305 305 305 304 303 303 302
328 328 327 326 326 326 326 325 325 325 325 325 324 324 324 324 324 324 324 323 323 323 323 323 322 322 322 322 322 322 322 322 322 321 321 320 319 319 318 317 317 316 315 315 314 314 313 313 312 312 311 311 311 310 310 310 309 309 308 308 307 307 306 306 306 305 304 304 303
328 328 327 326 326 326 326 325 325 325 325 325 324 324 324 324 324 324 323 323 322 322 322 322 322 322 322 322 321 321 321 321 321 320 320 319 319 319 319 318 318 317 317 317 316 316 315 315 314 313 313 312 312 311 311 311 310 310 309 309 308 308 307 307 306 306 305 305 304
328 327 327 326 326 326 325 325 325 325 325 325 325 325 325 324 324 323 323 322 322 322 321 322 322 322 321 321 321 321 320 320 320 320 320 320 320 320 320 319 319 318 318 318 318 317 317 317 316 316 315 314 313 312 312 311 311 311 310 310 309 309 308 307 307 306 306 305 305
328 327 327 326 326 326 325 325 325 325 325 325 325 325 325 324 324 323 322 322 322 321 321 321 321 321 320 320 320 320 320 321 321 321 321 321 321 321 320 319 319 318 318 319 319 319 319 319 318 318 317 316 314 313 313 312 312 312 311 311 310 310 309 308 308 307 306 306 305
327 327 326 326 326 325 325 325 325 325 325 325 325 325 325 324 324 323 322 322 321 321 320 320 320 320 320 319 319 320 320 321 321 321 321 321 321 320 320 319 319 318 319 320 320 320 320 320 319 319 319 318 317 316 315 314 314 313 313 312 312 311 310 309 309 308 307 307 306
327 327 326 326 325 325 325 325 325 326 326 326 325 325 325 324 324 323 322 322 321 320 320 320 320 320 319 319 320 320 320 320 320 320 320 320 320 320 319 319 319 319 319 320 321 321 321 321 320 320 320 320 319 318 317 316 316 315 314 314 313 312 311 311 310 309 309 308 307
327 326 326 325 325 325 325 325 325 326 326 326 326 325 325 324 324 323 322 322 321 321 321 320 320 320 320 320 320 320 320 320 320 319 320 320 320 320 320 320 320 320 320 321 321 321 321 321 321 321 321 321 320 319 319 318 317 316 316 315 314 313 312 312 311 310 310 309 308
326 326 326 325 325 325 325 325 325 326 326 326 325 325 325 324 324 323 323 322 322 321 321 321 321 320 320 319 319 319 319 319 319 319 319 320 320 320 320 320 320 320 321 322 322 322 322 322 322 322 322 322 321 320 320 319 318 317 317 316 315 314 313 312 312 311 310 309 308
326 326 326 325 325 325 325 325 325 325 325 325 325 325 325 324 324 323 323 322 322 321 321 321 320 319 318 318 318 318 318 318 318 319 320 320 321 321 321 321 321 321 322 322 322 322 323 323 323 323 323 322 322 321 321 320 319 318 318 317 316 315 314 313 312 311 310 309 308
326 326 326 325 325 325 325 325 325 325 325 325 325 325 324 324 324 323 323 322 321 321 320 320 319 318 317 317 317 317 318 318 319 320 320 321 321 322 322 322 321 322 322 323 323 323 324 324 324 324 323 323 322 322 321 321 320 319 318 318 317 316 315 314 313 312 311 310 309
326 326 325 325 325 326 326 326 326 325 325 325 324 324 324 323 323 323 322 322 321 320 319 319 317 317 317 317 317 318 318 319 320 320 321 321 322 322 322 322 322 322 323 324 324 324 324 325 324 324 324 323 323 322 322 321 321 320 319 318 317 316 315 315 314 313 312 311 310
326 325 325 325 325 326 326 326 325 325 325 324 324 323 323 323 322 322 322 321 320 319 319 318 317 317 317 318 318 319 319 320 320 320 321 321 322 322 322 322 322 322 323 324 325 325 325 326 325 325 325 324 324 323 323 322 322 321 320 319 318 317 317 316 315 315 314 313 312
325 325 325 325 325 326 326 325 325 325 324 324 323 323 322 322 322 321 321 321 320 319 318 317 317 317 318 318 319 319 320 320 320 321 321 321 321 322 322 323 323 323 324 325 326 326 326 326 326 326 326 325 325 324 324 323 323 322 321 320 319 319 318 318 318 317 316 316 315
325 325 325 325 325 325 325 325 325 324 324 323 322 322 322 322 321 321 320 320 319 318 318 317 317 318 318 319 320 320 320 320 321 321 321 321 321 322 322 323 323 324 324 325 326 326 327 327 327 327 327 326 325 325 325 324 323 323 322 321 321 320 320 320 320 319 319 318 317
325 325 325 325 325 325 325 325 325 324 323 323 322 322 321 321 321 320 320 320 319 318 318 318 318 319 319 320 320 320 320 320 321 321 321 321 322 322 323 324 324 324 324 325 326 327 327 327 328 328 327 327 326 326 325 325 325 324 324 323 323 323 322 322 322 321 321 320 320
325 325 325 325 325 325 325 325 324 324 323 322 322 321 321 321 320 320 320 320 319 319 319 319 319 319 320 320 320 320 320 320 321 321 321 322 322 323 324 324 324 324 325 325 327 327 328 328 328 328 328 328 327 327 326 326 326 326 325 325 325 325 324 324 324 323 323 323 322